(148002) = 1991 PY32 = 1997 GF2 = 2002 UL33

Discovered at Kitt Peak on 1997-04-07 by Spacewatch.

Orbit

Orbit type: Main Belt

Note: WebGL enabled browser required.

epoch2024-03-31.0
epoch JD2460400.5
perihelion date2023-09-19.27573
perihelion JD2460206.77573
argument of perihelion (°)357.89485
ascending node (°)2.84885
inclination (°)2.47951
eccentricity0.1837739
perihelion distance (AU)1.8950979
Tisserand w.r.t. Jupiter3.6
ΔV w.r.t. Earth (km/sec)8.6
semimajor axis (AU)2.3217806
mean anomaly (°)53.97046
mean daily motion (°/day)0.27859420
aphelion distance (AU)2.748
period (years)3.54
P-vector [x]0.99991405
P-vector [y]0.01257211
P-vector [z]0.00371858
Q-vector [x]-0.01293300
Q-vector [y]0.89935040
Q-vector [z]0.43703730
absolute magnitude16.96
phase slope0.15
uncertainty0
referenceMPEC 2024-E02
observations used687
oppositions15
arc length (days)11840
first opposition used1991
last opposition used2024
residual rms (arc-secs)0.67
perturbers coarse indicatorM-v
perturbers precise indicator003Ek
first observation date used1991-08-14.0
last observation date used2024-01-13.0
computer nameMPCLINUX
JD of orbit computation2456700.441184
perihelion JD uncertainty (days)6.2136E-05
argument of perihelion uncertainty (°)1.0594E-04
ascending node uncertainty (°)1.0521E-04
inclination uncertainty (°)5.4377E-06
eccentricity uncertainty 8.8158E-08
perihelion distance uncertainty (AU)2.0166E-07
Minimum Orbit Intersection Distances (in AU)
for orbit epoch: 2460400.5, reference: E2024-E02
Mercury1.52796
Venus1.17036
Earth0.89192
Mars0.49756
Jupiter2.69109
Saturn6.5923
Uranus15.703
Neptune27.7181

Observations

710 total observations over interval: 1991 08 14.20625 – 2024 01 13.111705
These data are available for download (format description).

Date (UT) J2000 RA J2000 Dec Magn Location Ref
1991 08 14.20625 21 53 43.68 -16 19 39.1   809 – European Southern Observatory, La Silla MPC 64972
1991 08 14.21944 21 53 42.79 -16 19 42.0   809 – European Southern Observatory, La Silla MPC 64972
1991 08 14.23264 21 53 41.93 -16 19 44.8   809 – European Southern Observatory, La Silla MPC 64972
1997 03 11.42585 12 26 07.70 -02 41 24.9 20.8 V 691 – Steward Observatory, Kitt Peak-Spacewatch MPC 29476
1997 03 11.47427 12 26 05.09 -02 41 10.5 21.3 V 691 – Steward Observatory, Kitt Peak-Spacewatch MPC 29476
1997 03 11.49549 12 26 03.97 -02 41 05.3 22.0 V 691 – Steward Observatory, Kitt Peak-Spacewatch MPC 29476
1997 03 15.40375 12 22 32.46 -02 21 38.3 21.8 V 691 – Steward Observatory, Kitt Peak-Spacewatch MPS 79476
1997 03 15.42760 12 22 31.14 -02 21 31.1 22.0 V 691 – Steward Observatory, Kitt Peak-Spacewatch MPS 79476
1997 03 15.44883 12 22 29.90 -02 21 24.5 22.0 V 691 – Steward Observatory, Kitt Peak-Spacewatch MPS 79476
1997 04 07.20722 12 01 01.31 -00 21 37.4 21.0 V 691 – Steward Observatory, Kitt Peak-Spacewatch MPC 29476
1997 04 07.22848 12 01 00.13 -00 21 31.4 21.0 V 691 – Steward Observatory, Kitt Peak-Spacewatch MPC 29476
1997 04 07.24939 12 00 59.05 -00 21 25.5 21.0 V 691 – Steward Observatory, Kitt Peak-Spacewatch MPC 29476
1997 04 08.33022 12 00 02.59 -00 16 13.0 21.2 V 691 – Steward Observatory, Kitt Peak-Spacewatch MPC 29476
1997 04 08.35312 12 00 01.36 -00 16 06.4 21.2 V 691 – Steward Observatory, Kitt Peak-Spacewatch MPC 29476
1997 04 08.37810 12 00 00.03 -00 15 59.2 21.0 V 691 – Steward Observatory, Kitt Peak-Spacewatch MPC 29476
1997 04 16.19009 11 53 47.51 +00 18 11.6 20.9 V 691 – Steward Observatory, Kitt Peak-Spacewatch MPC 29476
1997 04 16.21186 11 53 46.55 +00 18 16.8 21.4 V 691 – Steward Observatory, Kitt Peak-Spacewatch MPC 29476
1997 04 16.23418 11 53 45.53 +00 18 21.3 20.7 V 691 – Steward Observatory, Kitt Peak-Spacewatch MPC 29476
2002 10 31.38025 03 56 24.12 +23 55 32.6 19.0 R 699 – Lowell Observatory-LONEOS MPS 66340
2002 10 31.40130 03 56 22.99 +23 55 31.3   699 – Lowell Observatory-LONEOS MPS 66340
2002 10 31.42236 03 56 21.86 +23 55 31.7   699 – Lowell Observatory-LONEOS MPS 66340
2002 10 31.44335 03 56 20.72 +23 55 30.0   699 – Lowell Observatory-LONEOS MPS 66340
2002 11 01.45817 03 55 26.32 +23 54 52.1 19.4   644 – Palomar Mountain/NEAT MPS 66340
2002 11 01.46887 03 55 25.71 +23 54 51.2 19.5   644 – Palomar Mountain/NEAT MPS 66340
2002 11 01.47941 03 55 25.12 +23 54 51.0 19.4   644 – Palomar Mountain/NEAT MPS 66340
2002 11 05.23241 03 51 50.42 +23 51 11.2 18.6   704 – Lincoln Laboratory ETS, New Mexico MPS 66340
2002 11 05.24952 03 51 49.36 +23 51 09.8 19.0   704 – Lincoln Laboratory ETS, New Mexico MPS 66340
2002 11 05.26671 03 51 48.28 +23 51 08.5 18.8   704 – Lincoln Laboratory ETS, New Mexico MPS 66340
2002 11 05.28429 03 51 47.18 +23 51 07.3 19.2   704 – Lincoln Laboratory ETS, New Mexico MPS 66340
2002 11 05.30156 03 51 46.03 +23 51 06.3 19.3   704 – Lincoln Laboratory ETS, New Mexico MPS 66340
2002 11 12.25002 03 44 23.78 +23 39 18.1 18.9   704 – Lincoln Laboratory ETS, New Mexico MPS 66340
2002 11 12.26726 03 44 22.61 +23 39 15.9 19.1   704 – Lincoln Laboratory ETS, New Mexico MPS 66340
2002 11 12.28462 03 44 21.43 +23 39 14.0 19.4   704 – Lincoln Laboratory ETS, New Mexico MPS 66340
2002 11 12.30187 03 44 20.25 +23 39 11.8 19.1   704 – Lincoln Laboratory ETS, New Mexico MPS 66340
2002 11 12.31920 03 44 19.01 +23 39 09.3 19.6   704 – Lincoln Laboratory ETS, New Mexico MPS 66340
2002 11 13.45164 03 43 03.28 +23 36 38.4 19.1   644 – Palomar Mountain/NEAT MPS 66340
2002 11 13.47199 03 43 01.86 +23 36 35.2 19.0   644 – Palomar Mountain/NEAT MPS 66340
2002 11 13.49388 03 43 00.36 +23 36 32.0 19.0   644 – Palomar Mountain/NEAT MPS 66340
2002 11 14.24773 03 42 10.43 +23 34 49.4 18.5   704 – Lincoln Laboratory ETS, New Mexico MPS 66340
2002 11 14.26480 03 42 09.21 +23 34 46.9 19.2   704 – Lincoln Laboratory ETS, New Mexico MPS 66340
2002 11 14.29935 03 42 06.82 +23 34 41.5 19.1   704 – Lincoln Laboratory ETS, New Mexico MPS 66340
2002 11 14.31638 03 42 05.65 +23 34 40.1 19.2   704 – Lincoln Laboratory ETS, New Mexico MPS 66340
2002 11 27.23852 03 27 57.60 +22 57 20.0 18.6 R 699 – Lowell Observatory-LONEOS MPS 67412
2002 11 27.25462 03 27 56.50 +22 57 16.1   699 – Lowell Observatory-LONEOS MPS 67412
2002 11 27.27086 03 27 55.57 +22 57 13.4   699 – Lowell Observatory-LONEOS MPS 67412
2002 11 27.28691 03 27 54.47 +22 57 10.4   699 – Lowell Observatory-LONEOS MPS 67412
2002 11 28.17459 03 27 00.98 +22 54 16.9 18.5 R 699 – Lowell Observatory-LONEOS MPS 67412
2002 11 28.19077 03 26 59.84 +22 54 14.1   699 – Lowell Observatory-LONEOS MPS 67412
2002 11 28.20681 03 26 58.85 +22 54 10.5   699 – Lowell Observatory-LONEOS MPS 67412
2002 11 28.22289 03 26 57.89 +22 54 07.5   699 – Lowell Observatory-LONEOS MPS 67412
2002 12 02.23599 03 23 07.37 +22 40 56.9 19.0   704 – Lincoln Laboratory ETS, New Mexico MPS 67412
2002 12 02.25124 03 23 06.52 +22 40 54.0 19.1   704 – Lincoln Laboratory ETS, New Mexico MPS 67412
2002 12 02.26659 03 23 05.63 +22 40 50.9 19.6   704 – Lincoln Laboratory ETS, New Mexico MPS 67412
2002 12 02.28212 03 23 04.76 +22 40 47.5 19.5   704 – Lincoln Laboratory ETS, New Mexico MPS 67412
2002 12 02.29751 03 23 03.86 +22 40 44.7 19.4   704 – Lincoln Laboratory ETS, New Mexico MPS 67412
2002 12 05.21014 03 20 32.57 +22 31 16.9 18.9   704 – Lincoln Laboratory ETS, New Mexico MPS 67412
2002 12 05.22550 03 20 31.75 +22 31 14.5 19.6   704 – Lincoln Laboratory ETS, New Mexico MPS 67412
2002 12 05.24079 03 20 31.00 +22 31 11.6 19.9   704 – Lincoln Laboratory ETS, New Mexico MPS 67412
2002 12 05.25608 03 20 30.17 +22 31 07.8 19.5   704 – Lincoln Laboratory ETS, New Mexico MPS 67412
2002 12 05.27132 03 20 29.35 +22 31 05.2 19.9   704 – Lincoln Laboratory ETS, New Mexico MPS 67412
2002 12 06.22217 03 19 43.51 +22 28 04.9 20.0   704 – Lincoln Laboratory ETS, New Mexico MPS 67412
2002 12 06.23745 03 19 42.63 +22 28 00.0 19.7   704 – Lincoln Laboratory ETS, New Mexico MPS 67412
2002 12 06.25294 03 19 41.80 +22 27 58.3 19.9   704 – Lincoln Laboratory ETS, New Mexico MPS 67412
2002 12 06.26825 03 19 41.13 +22 27 55.5 20.4   704 – Lincoln Laboratory ETS, New Mexico MPS 67412
2002 12 06.28369 03 19 40.27 +22 27 52.3 20.3   704 – Lincoln Laboratory ETS, New Mexico MPS 67412
2002 12 11.21493 03 16 09.54 +22 12 54.5 20.0   644 – Palomar Mountain/NEAT MPS 67412
2002 12 11.23605 03 16 08.64 +22 12 51.3 19.8   644 – Palomar Mountain/NEAT MPS 67412
2002 12 11.23959 03 16 08.41 +22 12 51.6 19.9   704 – Lincoln Laboratory ETS, New Mexico MPS 67412
2002 12 11.25521 03 16 07.82 +22 12 48.6 19.6   704 – Lincoln Laboratory ETS, New Mexico MPS 67412
2002 12 11.25723 03 16 07.81 +22 12 47.8 19.5   644 – Palomar Mountain/NEAT MPS 67412
2002 12 11.28637 03 16 06.46 +22 12 41.5 20.0   704 – Lincoln Laboratory ETS, New Mexico MPS 67412
2004 02 17.42929 12 14 19.96 -00 45 19.5 21.1 V 291 – LPL/Spacewatch II MPS 110665
2004 02 17.45435 12 14 19.04 -00 45 14.9 21.7 V 291 – LPL/Spacewatch II MPS 110665
2004 02 17.48531 12 14 17.92 -00 45 08.8 21.3 V 291 – LPL/Spacewatch II MPS 110665
2004 03 17.97312 11 49 50.04 +01 31 55.0 20.0 R 184 – Valmeca Observatory, Puimichel MPS 110209
2004 03 17.98290 11 49 49.40 +01 31 59.1 19.9 R 184 – Valmeca Observatory, Puimichel MPS 110209
2004 03 17.99202 11 49 48.98 +01 32 00.7 19.5 R 184 – Valmeca Observatory, Puimichel MPS 110209
2004 03 23.30239 11 44 41.13 +02 00 40.8 20.4 V 691 – Steward Observatory, Kitt Peak-Spacewatch MPS 110209
2004 03 23.33057 11 44 39.45 +02 00 49.7 20.3 V 691 – Steward Observatory, Kitt Peak-Spacewatch MPS 110209
2004 03 23.35952 11 44 37.76 +02 00 59.0 20.7 V 691 – Steward Observatory, Kitt Peak-Spacewatch MPS 110209
2004 03 31.18578 11 37 25.27 +02 40 42.5 21.8 V 291 – LPL/Spacewatch II MPS 110665
2004 03 31.20913 11 37 24.01 +02 40 49.4 21.4 V 291 – LPL/Spacewatch II MPS 110665
2004 03 31.23239 11 37 22.76 +02 40 56.1 21.3 V 291 – LPL/Spacewatch II MPS 110665
2006 12 21.46550 09 06 00.79 +20 09 55.9 21.0 V 691 – Steward Observatory, Kitt Peak-Spacewatch MPS 191727
2006 12 21.48287 09 06 00.30 +20 09 58.1 21.1 V 691 – Steward Observatory, Kitt Peak-Spacewatch MPS 191727
